Time,TemperatureF,DewpointF,PressureIn,WindDirection,WindDirectionDegrees,WindSpeedMPH,WindSpeedGustMPH,Humidity,HourlyPrecipIn,Conditions,Clouds,dailyrainin,SoftwareType,DateUTC
2013-02-27 00:01:00,41.8,38.5,29.67,WSW,252,5.2,15.6,88,0.00,,CLR,1.33,VWS V14.01,2013-02-27 05:01:00,
2013-02-27 00:15:00,41.9,38.3,29.67,WSW,251,10.4,19.5,87,0.00,,CLR,0.00,VWS V14.01,2013-02-27 05:15:00,
2013-02-27 00:30:00,41.9,38.0,29.67,SSW,212,6.5,14.3,86,0.00,,CLR,0.00,VWS V14.01,2013-02-27 05:30:00,
2013-02-27 00:45:00,42.0,37.8,29.68,WNW,297,9.1,13.0,85,0.00,,CLR,0.00,VWS V14.01,2013-02-27 05:45:00,
2013-02-27 01:00:00,42.3,37.8,29.68,WNW,300,5.2,13.0,84,0.00,,CLR,0.00,VWS V14.01,2013-02-27 06:00:00,
2013-02-27 01:15:00,42.3,37.8,29.69,SW,234,3.9,11.7,84,0.00,,CLR,0.00,VWS V14.01,2013-02-27 06:15:00,
2013-02-27 01:30:00,42.2,37.7,29.69,WSW,238,5.2,14.3,84,0.00,,CLR,0.00,VWS V14.01,2013-02-27 06:30:00,
2013-02-27 01:45:00,41.7,37.5,29.69,WSW,254,5.2,10.4,85,0.00,,CLR,0.00,VWS V14.01,2013-02-27 06:45:00,
2013-02-27 02:00:00,41.4,37.5,29.70,SW,223,2.6,7.8,86,0.00,,CLR,0.00,VWS V14.01,2013-02-27 07:00:00,
2013-02-27 02:15:00,41.4,39.0,29.70,WSW,243,11.7,11.7,91,0.00,,CLR,0.00,VWS V14.01,2013-02-27 07:15:00,
2013-02-27 02:30:00,41.7,37.8,29.70,West,269,5.2,13.0,86,0.00,,CLR,0.00,VWS V14.01,2013-02-27 07:30:00,
2013-02-27 02:45:00,41.4,37.5,29.70,SW,236,5.2,10.4,86,0.00,,CLR,0.00,VWS V14.01,2013-02-27 07:45:00,
2013-02-27 03:00:00,41.4,37.5,29.70,WSW,245,2.6,10.4,86,0.00,,CLR,0.00,VWS V14.01,2013-02-27 08:00:00,
2013-02-27 03:15:00,41.3,37.4,29.71,WSW,242,7.8,11.7,86,0.00,,OVC049,0.00,VWS V14.01,2013-02-27 08:15:00,
2013-02-27 03:30:00,41.1,37.2,29.70,WNW,286,6.5,13.0,86,0.00,,OVC049,0.00,VWS V14.01,2013-02-27 08:30:00,
2013-02-27 03:45:00,40.9,37.0,29.70,WSW,257,9.1,13.0,86,0.00,,OVC049,0.00,VWS V14.01,2013-02-27 08:45:00,
2013-02-27 04:00:00,40.8,36.7,29.70,SW,226,6.5,9.1,85,0.00,,OVC049,0.00,VWS V14.01,2013-02-27 09:00:00,
2013-02-27 04:15:00,40.7,36.2,29.70,SW,224,5.2,11.7,84,0.00,,CLR,0.00,VWS V14.01,2013-02-27 09:15:00,
2013-02-27 04:30:00,40.5,36.0,29.71,West,263,9.1,14.3,84,0.00,,CLR,0.00,VWS V14.01,2013-02-27 09:30:00,
2013-02-27 04:45:00,40.5,35.8,29.72,SW,229,9.1,11.7,83,0.00,,CLR,0.00,VWS V14.01,2013-02-27 09:45:00,
2013-02-27 05:00:00,39.9,35.5,29.73,WSW,247,6.5,6.5,84,0.00,,CLR,0.00,VWS V14.01,2013-02-27 10:00:00,
2013-02-27 05:15:00,39.9,35.2,29.73,SW,227,5.2,9.1,83,0.00,,CLR,0.00,VWS V14.01,2013-02-27 10:15:00,
2013-02-27 05:30:00,39.6,34.9,29.73,WSW,242,3.9,6.5,83,0.00,,CLR,0.00,VWS V14.01,2013-02-27 10:30:00,
2013-02-27 05:45:00,39.5,34.8,29.73,WSW,252,7.8,10.4,83,0.00,,CLR,0.00,VWS V14.01,2013-02-27 10:45:00,
2013-02-27 06:00:00,39.2,34.8,29.74,SW,234,5.2,9.1,84,0.00,,CLR,0.00,VWS V14.01,2013-02-27 11:00:00,
2013-02-27 06:15:00,39.0,34.6,29.75,SW,229,3.9,7.8,84,0.00,,CLR,0.00,VWS V14.01,2013-02-27 11:15:00,
2013-02-27 06:30:00,38.9,34.8,29.75,WSW,251,2.6,9.1,85,0.00,,CLR,0.00,VWS V14.01,2013-02-27 11:30:00,
2013-02-27 06:45:00,38.9,34.5,29.75,WSW,246,5.2,6.5,84,0.00,,CLR,0.00,VWS V14.01,2013-02-27 11:45:00,
2013-02-27 07:00:00,38.5,34.4,29.74,WSW,246,7.8,7.8,85,0.00,,CLR,0.00,VWS V14.01,2013-02-27 12:00:00,
2013-02-27 07:15:00,37.6,33.8,29.76,SSW,192,0.0,2.6,86,0.00,,CLR,0.00,VWS V14.01,2013-02-27 12:15:00,
2013-02-27 07:30:00,37.3,33.8,29.76,SSW,192,1.3,2.6,87,0.00,,CLR,0.00,VWS V14.01,2013-02-27 12:30:00,
2013-02-27 07:45:00,38.4,34.6,29.78,WSW,249,3.9,3.9,86,0.00,,CLR,0.00,VWS V14.01,2013-02-27 12:45:00,
2013-02-27 08:00:00,39.8,35.1,29.78,SW,221,5.2,6.5,83,0.00,,CLR,0.00,VWS V14.01,2013-02-27 13:00:00,
2013-02-27 08:15:00,41.1,35.7,29.79,WNW,282,7.8,10.4,81,0.00,,CLR,0.00,VWS V14.01,2013-02-27 13:15:00,
2013-02-27 08:30:00,42.0,36.3,29.79,SSW,193,6.5,6.5,80,0.00,,CLR,0.00,VWS V14.01,2013-02-27 13:30:00,
2013-02-27 08:45:00,42.7,36.3,29.79,SW,234,5.2,10.4,78,0.00,,CLR,0.00,VWS V14.01,2013-02-27 13:45:00,
2013-02-27 09:00:00,43.6,36.2,29.80,South,186,3.9,10.4,75,0.00,,CLR,0.00,VWS V14.01,2013-02-27 14:00:00,
2013-02-27 09:15:00,44.6,37.2,29.80,SE,133,1.3,9.1,75,0.00,,CLR,0.00,VWS V14.01,2013-02-27 14:15:00,
2013-02-27 09:30:00,45.4,36.9,29.80,WSW,250,3.9,10.4,72,0.00,,CLR,0.00,VWS V14.01,2013-02-27 14:30:00,
2013-02-27 09:45:00,45.8,37.7,29.81,SSW,197,2.6,10.4,73,0.00,,CLR,0.00,VWS V14.01,2013-02-27 14:45:00,
2013-02-27 10:00:00,46.3,37.1,29.81,WSW,256,6.5,11.7,70,0.00,,CLR,0.00,VWS V14.01,2013-02-27 15:00:00,
2013-02-27 10:15:00,47.4,37.8,29.82,North,351,6.5,10.4,69,0.00,,CLR,0.00,VWS V14.01,2013-02-27 15:15:00,
2013-02-27 10:30:00,47.7,37.3,29.81,SSW,207,7.8,10.4,67,0.00,,CLR,0.00,VWS V14.01,2013-02-27 15:30:00,
2013-02-27 10:45:00,48.2,37.8,29.81,West,261,9.1,9.1,67,0.00,,CLR,0.00,VWS V14.01,2013-02-27 15:45:00,
2013-02-27 11:00:00,48.8,37.6,29.80,SSE,161,7.8,11.7,65,0.00,,CLR,0.00,VWS V14.01,2013-02-27 16:00:00,
2013-02-27 11:15:00,49.4,38.1,29.81,SSW,206,6.5,11.7,65,0.00,,CLR,0.00,VWS V14.01,2013-02-27 16:15:00,
2013-02-27 11:30:00,50.1,38.0,29.81,South,187,6.5,11.7,63,0.00,,CLR,0.00,VWS V14.01,2013-02-27 16:30:00,
2013-02-27 11:45:00,50.2,37.3,29.81,WSW,242,5.2,14.3,61,0.00,,CLR,0.00,VWS V14.01,2013-02-27 16:45:00,
2013-02-27 12:00:00,50.8,38.3,29.81,West,263,16.9,16.9,62,0.00,,CLR,0.00,VWS V14.01,2013-02-27 17:00:00,
2013-02-27 12:15:00,51.1,38.1,29.80,SSE,167,6.5,13.0,61,0.00,,CLR,0.00,VWS V14.01,2013-02-27 17:15:00,
2013-02-27 12:30:00,51.8,38.4,29.80,SW,229,14.3,15.6,60,0.00,,CLR,0.00,VWS V14.01,2013-02-27 17:30:00,
2013-02-27 12:45:00,51.7,38.7,29.79,South,189,3.9,20.8,61,0.00,,CLR,0.00,VWS V14.01,2013-02-27 17:45:00,
2013-02-27 13:00:00,51.6,39.4,29.79,NW,309,5.2,14.3,63,0.00,,CLR,0.00,VWS V14.01,2013-02-27 18:00:00,
2013-02-27 13:15:00,51.8,39.6,29.79,West,268,13.0,19.5,63,0.00,,CLR,0.00,VWS V14.01,2013-02-27 18:15:00,
2013-02-27 13:30:00,52.2,39.2,29.78,NNW,334,6.5,14.3,61,0.00,,CLR,0.00,VWS V14.01,2013-02-27 18:30:00,
2013-02-27 13:45:00,52.7,40.1,29.78,SE,134,6.5,14.3,62,0.00,,CLR,0.00,VWS V14.01,2013-02-27 18:45:00,
2013-02-27 14:00:00,53.1,39.6,29.77,SSW,205,3.9,11.7,60,0.00,,CLR,0.00,VWS V14.01,2013-02-27 19:00:00,
2013-02-27 14:15:00,53.6,39.6,29.76,SSW,194,11.7,18.2,59,0.00,,CLR,0.00,VWS V14.01,2013-02-27 19:15:00,
2013-02-27 14:30:00,53.3,39.8,29.76,West,267,11.7,20.8,60,0.00,,CLR,0.00,VWS V14.01,2013-02-27 19:30:00,
2013-02-27 14:45:00,53.9,39.9,29.76,South,190,6.5,15.6,59,0.00,,CLR,0.00,VWS V14.01,2013-02-27 19:45:00,
2013-02-27 15:00:00,54.3,39.4,29.76,WSW,240,9.1,15.6,57,0.00,,CLR,0.00,VWS V14.01,2013-02-27 20:00:00,
2013-02-27 15:15:00,55.4,40.4,29.76,WSW,240,5.2,13.0,57,0.00,,CLR,0.00,VWS V14.01,2013-02-27 20:15:00,
2013-02-27 15:30:00,55.8,39.9,29.75,SSW,196,14.3,14.3,55,0.00,,CLR,0.00,VWS V14.01,2013-02-27 20:30:00,
2013-02-27 15:45:00,56.0,39.6,29.74,WSW,247,7.8,18.2,54,0.00,,CLR,0.00,VWS V14.01,2013-02-27 20:45:00,
2013-02-27 16:00:00,56.4,40.0,29.74,SW,226,7.8,13.0,54,0.00,,CLR,0.00,VWS V14.01,2013-02-27 21:00:00,
2013-02-27 16:15:00,56.3,39.9,29.74,SSW,206,5.2,10.4,54,0.00,,CLR,0.00,VWS V14.01,2013-02-27 21:15:00,
2013-02-27 16:30:00,56.1,39.2,29.73,WSW,248,10.4,16.9,53,0.00,,CLR,0.00,VWS V14.01,2013-02-27 21:30:00,
2013-02-27 16:45:00,56.0,39.6,29.74,SSW,197,9.1,15.6,54,0.00,,CLR,0.00,VWS V14.01,2013-02-27 21:45:00,
2013-02-27 17:00:00,55.9,40.0,29.74,SW,215,6.5,16.9,55,0.00,,CLR,0.00,VWS V14.01,2013-02-27 22:00:00,
2013-02-27 17:15:00,55.6,38.8,29.73,SW,227,6.5,16.9,53,0.00,,CLR,0.00,VWS V14.01,2013-02-27 22:15:00,
2013-02-27 17:30:00,55.6,39.2,29.73,SSE,148,6.5,9.1,54,0.00,,CLR,0.00,VWS V14.01,2013-02-27 22:30:00,
2013-02-27 17:45:00,54.7,38.9,29.73,South,184,7.8,10.4,55,0.00,,CLR,0.00,VWS V14.01,2013-02-27 22:45:00,
2013-02-27 18:00:00,53.9,38.1,29.74,South,188,2.6,19.5,55,0.00,,CLR,0.00,VWS V14.01,2013-02-27 23:00:00,
2013-02-27 18:15:00,53.3,38.0,29.75,SSW,208,5.2,16.9,56,0.00,,CLR,0.00,VWS V14.01,2013-02-27 23:15:00,
2013-02-27 18:30:00,52.9,38.1,29.75,SW,232,5.2,10.4,57,0.00,,CLR,0.00,VWS V14.01,2013-02-27 23:30:00,
2013-02-27 18:45:00,52.3,38.0,29.75,South,186,5.2,16.9,58,0.00,,CLR,0.00,VWS V14.01,2013-02-27 23:45:00,
2013-02-27 19:00:00,51.9,37.6,29.75,SW,232,1.3,10.4,58,0.00,,CLR,0.00,VWS V14.01,2013-02-28 00:00:00,
2013-02-27 19:15:00,51.7,37.8,29.75,WSW,244,7.8,11.7,59,0.00,,CLR,0.00,VWS V14.01,2013-02-28 00:15:00,
2013-02-27 19:30:00,51.3,37.5,29.76,West,268,3.9,9.1,59,0.00,,CLR,0.00,VWS V14.01,2013-02-28 00:30:00,
2013-02-27 19:45:00,51.0,37.2,29.76,West,266,5.2,10.4,59,0.00,,CLR,0.00,VWS V14.01,2013-02-28 00:45:00,
2013-02-27 20:00:00,50.7,36.9,29.76,WSW,245,5.2,10.4,59,0.00,,CLR,0.00,VWS V14.01,2013-02-28 01:00:00,
2013-02-27 20:15:00,50.8,36.6,29.76,West,261,5.2,9.1,58,0.00,,CLR,0.00,VWS V14.01,2013-02-28 01:15:00,
2013-02-27 20:30:00,50.7,36.0,29.76,West,275,5.2,9.1,57,0.00,,CLR,0.00,VWS V14.01,2013-02-28 01:30:00,
2013-02-27 20:45:00,50.6,35.9,29.77,West,271,3.9,9.1,57,0.00,,CLR,0.00,VWS V14.01,2013-02-28 01:45:00,
2013-02-27 21:00:00,50.3,35.7,29.77,WNW,284,1.3,7.8,57,0.00,,CLR,0.00,VWS V14.01,2013-02-28 02:00:00,
2013-02-27 21:15:00,50.2,35.6,29.76,WNW,288,2.6,10.4,57,0.00,,CLR,0.00,VWS V14.01,2013-02-28 02:15:00,
2013-02-27 21:30:00,50.4,35.3,29.76,West,281,5.2,10.4,56,0.00,,CLR,0.00,VWS V14.01,2013-02-28 02:30:00,
2013-02-27 21:45:00,50.2,35.6,29.77,SW,234,0.0,7.8,57,0.00,,CLR,0.00,VWS V14.01,2013-02-28 02:45:00,
2013-02-27 22:00:00,49.9,35.7,29.76,West,261,2.6,11.7,58,0.00,,CLR,0.00,VWS V14.01,2013-02-28 03:00:00,
2013-02-27 22:15:00,49.4,35.7,29.77,West,267,13.0,13.0,59,0.00,,CLR,0.00,VWS V14.01,2013-02-28 03:15:00,
2013-02-27 22:30:00,49.8,36.1,29.76,WNW,299,3.9,11.7,59,0.00,,CLR,0.00,VWS V14.01,2013-02-28 03:30:00,
2013-02-27 22:45:00,49.6,37.1,29.76,West,262,5.2,11.7,62,0.00,,CLR,0.00,VWS V14.01,2013-02-28 03:45:00,
2013-02-27 23:00:00,49.1,37.5,29.76,WSW,252,3.9,7.8,64,0.00,,CLR,0.00,VWS V14.01,2013-02-28 04:00:00,
2013-02-27 23:15:00,48.9,37.3,29.76,NW,312,6.5,9.1,64,0.00,,SCT085,0.00,VWS V14.01,2013-02-28 04:15:00,
2013-02-27 23:30:00,48.7,37.5,29.75,West,267,0.0,9.1,65,0.00,,SCT085,0.00,VWS V14.01,2013-02-28 04:30:00,
2013-02-27 23:45:00,48.2,37.4,29.75,West,267,5.2,5.2,66,0.00,,SCT085,0.00,VWS V14.01,2013-02-28 04:45:00,